Regional Weather Roundup
Issued by NWS Northern Indiana

Home | Current Version | Previous Version | Graphics & Text | Print | Product List | Glossary On
Versions: 1 2 3 4 5 6 7 8 9 10 11 12 13 14 15 16 17 18 19 20 21 22 23 24 25 26 27 28 29 30 31 32 33 34 35 36 37 38 39 40 41 42 43 44 45 46 47 48 49 50
000
ASUS43 KIWX 240510
RWRIWX

KIWX WEATHER ROUNDUP
NATIONAL WEATHER SERVICE NORTHERN INDIANA
100 AM EDT SAT SEP 24 2016

NOTE: "FAIR" INDICATES FEW OR NO CLOUDS BELOW 12,000 FEET WITH NO
SIGNIFICANT WEATHER AND/OR OBSTRUCTIONS TO VISIBILITY.

* THESE STATIONS ARE NOT UNDER NWS QUALITY CONTROL. THEY ALSO MAY NOT
  REPORT WEATHER SUCH AS PRECIPITATION OR FOG.

INZ001>027-240600-
NORTHERN INDIANA

CITY           SKY/WX    TMP DP  RH WIND       PRES   REMARKS
GARY*          CLOUDY    70  68  93 NE8       30.14S
VALPARAISO     MOCLDY    66  64  93 E6        30.14R
MICHIGAN CITY* CLOUDY    64  64 100 CALM      30.14S
LAPORTE*       CLOUDY    68  68 100 E8        30.14S
KNOX*          CLOUDY    66  50  55 E9        30.13R
SOUTH BEND     CLOUDY    65  61  87 E8        30.15S
GOSHEN         CLOUDY    65  60  84 NE7       30.15R
MONTICELLO*    CLEAR     68  63  84 NE3       30.11R
LOGANSPORT*    CLEAR     68  66  94 NE5       30.12R FOG
ROCHESTER*     CLOUDY    70  68  94 E9        30.13S FOG
WARSAW*        CLOUDY    66  61  82 NE6       30.14R
ANGOLA*        CLOUDY    64  55  72 NE5       30.16R
FORT WAYNE     CLOUDY    69  63  81 NE14      30.13R
HUNTINGTON*    CLOUDY    68  66  93 E3        30.12S
PERU/GRISSOM   CLEAR     68  68 100 NE8       30.10S
MARION*        CLEAR     68  65  90 E8        30.12R

$$
INZ028>050-240600-
CENTRAL INDIANA

CITY           SKY/WX    TMP DP  RH WIND       PRES   REMARKS
LAFAYETTE      CLEAR     68  66  93 N5        30.09S
MUNCIE*        CLEAR     69  65  86 NE5       30.11R
INDIANAPOLIS   CLEAR     74  66  76 NE8       30.08S

$$
MIZ043>046-050>051-056>058-064>065-071>073-077>080-240600-
SOUTHWEST LOWER MICHIGAN

CITY           SKY/WX    TMP DP  RH WIND       PRES   REMARKS
BATTLE CREEK   CLOUDY    60  55  83 NE9       30.20R
BENTON HARBOR  PTCLDY    62  57  83 E9        30.16R
COLDWATER*     CLOUDY    63  58  84 NE8       30.17R
HILLSDALE*     CLOUDY    63  55  77 NE9       30.17R
HOLLAND        CLEAR     59  53  80 E10       30.20R
GRAND RAPIDS   CLEAR     57  51  80 NE9       30.22R
KALAMAZOO      CLOUDY    61  53  75 VRB7G17   30.19R
STURGIS*       CLOUDY    64  58  82 NE8       30.16R
THREE RIVERS*  CLOUDY    64  58  82 NE9       30.17S

$$
OHZ001>008-015>018-024>025-240600-
NORTHWEST OHIO

CITY           SKY/WX    TMP DP  RH WIND       PRES   REMARKS
WAUSEON*       CLOUDY    64  57  77 NE8       30.16R
DEFIANCE       CLOUDY    68  58  70 NE12G20   30.15R
FINDLAY        CLOUDY    68  60  75 NE14      30.12S
TOLEDO EXPRESS CLOUDY    65  58  78 NE10      30.15R
TOLEDO METCALF CLOUDY    67  62  84 NE12G18   30.15R
LIMA           CLOUDY    68  65  90 NE8       30.12R

$$
AND FOR LAKE MICHIGAN COASTAL AND OPEN LAKE BUOY OBSERVATIONS

STATION/POSITION TEMP    WIND        PRES    VSBY  WAVE
                 AIR SEA DIR/SP/G                  HT/PER
                 (F)     (DEG/KT/KT) (MB)    (MI)  (FT/S)
CALUMET HARBOR    69      30/  7/ 10 1020.1R
MICHIGAN CITY     67      40/ 11/ 12   N/A
BURNS HARBOR      68      60/  9/ 10 1020.7
SAINT JOSEPH      63      30/  4/  6 1021.3
SOUTH LAKE BUOY   65 72   90/ 19/ 23 1020.8R         4/ 4
4 MI NW BRIDGMAN  65 72   60/ 12/ 14 1020.8          3/ 5
MICHIGAN CITY     68 71   70/ 12/ 16   N/A           3/ 5

$$
&&




USA.gov is the U.S. government's official web portal to all federal, state and local government web resources and services.